Tracking 25963 objects as of 12-Aug-2022
HD Live streaming from Space Station
objects crossing your sky now

STARLINK-2707

Track STARLINK-2707 now!
10-day predictions
STARLINK-2707 is classified as:


NORAD ID: 48669
Int'l Code: 2021-044AH
Perigee: 553.4 km
Apogee: 555.3 km
Inclination: 53.1 °
Period: 95.6 minutes
Semi major axis: 6925 km
RCS: Unknown
Launch date: May 26, 2021
Source: United States (US)
Launch site: AIR FORCE EASTERN TEST RANGE (AFETR)
aabbcc
Your satellite tracking list
Your tracking list is empty




NASA's NSSDC Master Catalog

Two Line Element Set (TLE):
1 48669U 21044AH  22223.39469798 -.00000984  00000-0 -47178-4 0  9994
2 48669  53.0539 215.7919 0001329  81.3735 278.7405 15.06403101 67799
Source of the keplerian elements: AFSPC